Regional Weather Roundup
Issued by NWS

Home | Current Version | Previous Version | Text Only | Print | Product List | Glossary On
Versions: 1 2 3 4 5 6 7 8 9 10 11 12 13 14 15 16 17 18 19 20 21 22 23 24 25 26 27 28 29 30 31 32 33 34 35 36 37 38 39 40 41 42 43 44 45 46 47 48 49 50
000
ASUS45 KBOI 021210
RWRID
WEATHER ROUNDUP FOR IDAHO
NATIONAL WEATHER SERVICE BOISE ID
500 AM MST MON MAR 02 2015

NOTE: "FAIR" INDICATES FEW OR NO CLOUDS BELOW 12000 FEET
WITH NO SIGNIFICANT WEATHER AND/OR OBSTRUCTIONS TO VISIBILITY

IDZ012-014-021300-
SOUTHWEST IDAHO


CITY           SKY/WX    TMP DP  RH WIND       PRES   REMARKS
BOISE          CLEAR     31  20  63 SE7       29.85F WCI  24
CALDWELL       CLEAR     25  16  68 CALM      29.90S
MOUNTAIN HOME  CLEAR     21  14  74 E9        29.86F WCI  10
$$

IDZ016-017-021300-
SOUTHCENTRAL IDAHO


CITY           SKY/WX    TMP DP  RH WIND       PRES   REMARKS
BURLEY         CLEAR     19  12  74 CALM      29.85F
JEROME         CLEAR     24   6  46 NE17      29.84F WCI  11
TWIN FALLS     CLEAR     20  13  74 S5        29.84F WCI  13
$$

IDZ019>023-021300-
SOUTHEAST IDAHO


CITY           SKY/WX    TMP DP  RH WIND       PRES   REMARKS
IDAHO FALLS    CLEAR     15   6  67 N8        29.90F WCI   4
POCATELLO      CLEAR     17  12  80 E3        29.88F
REXBURG        CLEAR     13   8  81 E6        29.89F WCI   4
$$

IDZ006-010-011-018-031-032-021300-
CENTRAL IDAHO MOUNTAINS


CITY           SKY/WX    TMP DP  RH WIND       PRES   REMARKS
MCCALL         PTCLDY    18  13  80 CALM      29.83F
HAILEY         CLEAR     21  14  73 NW12      29.88F WCI   9
STANLEY          N/A      6   0  76 CALM      29.86F
SALMON         PTCLDY    16   9  73 CALM      29.92S
CHALLIS        CLEAR     15   8  73 CALM      29.89S
$$

IDZ002-004-006-007-026-021300-
NORTHERN IDAHO


CITY           SKY/WX    TMP DP  RH WIND       PRES   REMARKS
LEWISTON       PTCLDY    30  22  72 E5        29.91S WCI  25
LOWELL           N/A     26  20  77 NW3       29.98F
COEUR D`ALENE  MOCLDY    28  18  64 E7        29.89S WCI  21
MULLAN PASS    CLOUDY    23   4  44 SW3       29.78F
$$



USA.gov is the U.S. government's official web portal to all federal, state and local government web resources and services.